Location: Bremen
(53.0833°N, 8.8000°E)
Time: 13:54:27
(UTC+01:00)

ISS - Visible Passes

Search period start: 22 January 2026 00:00
Search period end: 01 February 2026 00:00
Orbit: 413 x 423 km, 51.6° (Epoch: 22 January)

Date Brightness Start Highest point End Pass type
(mag) Time Alt. Az. Time Alt. Az. Time Alt. Az.
22 Jan -3.6 17:53:12 10° W 17:56:32 69° S 17:59:23 13° E visible
22 Jan -2.4 19:29:54 10° W 19:32:19 38° WSW 19:32:19 38° WSW visible
23 Jan -3.4 18:41:56 10° W 18:45:13 60° SSW 18:46:23 35° SE visible
23 Jan -0.4 20:18:52 10° W 20:19:19 13° W 20:19:19 13° W visible
24 Jan -3.5 17:53:55 10° W 17:57:14 67° S 18:00:28 11° ESE visible
24 Jan -2.2 19:30:44 10° W 19:33:24 31° SW 19:33:24 31° SW visible
25 Jan -2.7 18:42:37 10° W 18:45:48 41° SSW 18:47:33 22° SE visible
25 Jan -0.4 20:20:23 10° WSW 20:20:30 10° WSW 20:20:30 10° WSW visible
26 Jan -3.0 17:54:32 10° W 17:57:47 51° SSW 18:01:03 10° ESE visible
26 Jan -1.4 19:31:43 10° W 19:34:04 18° SW 19:34:44 17° SSW visible
27 Jan -1.6 18:43:21 10° W 18:46:07 24° SSW 18:48:53 10° SSE visible
28 Jan -2.0 17:55:05 10° W 17:58:07 32° SSW 18:01:08 10° SE visible
29 Jan -0.7 18:44:32 10° WSW 18:46:11 13° SW 18:47:49 10° S visible
30 Jan -0.9 17:55:48 10° W 17:58:11 18° SW 18:00:35 10° SSE visible
